Regional Weather Roundup
Issued by NWS

Home | Current Version | Previous Version | Graphics & Text | Print | Product List | Glossary On
Versions: 1 2 3 4 5 6 7 8 9 10 11 12 13 14 15 16 17 18 19 20 21 22 23 24 25 26 27 28 29 30 31 32 33 34 35 36 37 38 39 40 41 42 43 44 45 46 47 48 49 50
000
ASUS45 KTFX 040910
RWRMT
MONTANA REGIONAL WEATHER ROUNDUP
NATIONAL WEATHER SERVICE GREAT FALLS MT
300 AM MDT TUE AUG 04 2015

NOTE: "FAIR" INDICATES FEW OR NO CLOUDS BELOW 12000 FEET WITH NO
SIGNIFICANT WEATHER AND/OR OBSTRUCTIONS TO VISIBILITY.

MTZ001>007-043-041000-
WEST OF THE DIVIDE

CITY           SKY/WX    TMP DP  RH WIND       PRES   REMARKS
KALISPELL      LGT RAIN  70  49  47 NW7       29.89R
MISSOULA       CLOUDY    72  41  32 W3        29.93R
BUTTE          LGT RAIN  64  49  57 SE8       30.08S
MULLAN PASS    CLOUDY    60  40  47 VRB3      30.08S
DEER LODGE       N/A     66  45  45 CALM      30.03S
EUREKA           N/A     70  54  56 N8        29.90R
HAMILTON         N/A     66  43  42 CALM      29.95R
LIBBY            N/A     66  54  63 S6        29.88F
PLAINS           N/A     73  44  35 CALM      29.90R
$$

MTZ008-052>055-041000-
SOUTHWEST MONTANA

CITY           SKY/WX    TMP DP  RH WIND       PRES   REMARKS
BOZEMAN        CLOUDY    64  52  64 E5        30.00S
DILLON         CLOUDY    64  51  62 SE6       30.06R
W YELLOWSTONE  CLOUDY    54  52  94 SW7       30.14F
$$

MTZ009-010-012-014-046-048-049-054-041000-
EAST SLOPES AND CENTRAL MONTANA

CITY           SKY/WX    TMP DP  RH WIND       PRES   REMARKS
CUT BANK       CLOUDY    74  37  26 W12       29.83R
GREAT FALLS    MOCLDY    73  43  33 SW14      29.84R
MALMSTROM AFB  MOCLDY    72  48  42 SW13      29.84R
HELENA         CLOUDY    79  40  24 S5        29.95R
CONRAD           N/A     65  55  69 SE2       29.88R
$$

MTZ011-013-016-021-045-047-050-051-041000-
NORTH CENTRAL MONTANA

CITY           SKY/WX    TMP DP  RH WIND       PRES   REMARKS
HAVRE          PTCLDY    73  49  42 NE6       29.77S
LEWISTOWN      PTCLDY    64  46  52 S6        29.90R
CHINOOK          N/A     66  52  59 E13G20    29.80F
FORT BENTON      N/A     73  48  40 SE5       29.81R
$$

MTZ017>020-022>027-061-062-041000-
NORTHEAST MONTANA

CITY           SKY/WX    TMP DP  RH WIND       PRES   REMARKS
GLASGOW        CLEAR     67  47  48 E17       29.87F
JORDAN           N/A     68  48  48 E7        29.86F
SIDNEY         PTCLDY    61  48  63 N5        29.94S
WOLF POINT     PTCLDY    61  48  62 E9        29.91F
MALTA            N/A     69  48  46 CALM      29.82F
POPLAR           N/A     59  48  67 NE5       29.93R
$$

MTZ028>42-056>058-041000-
SOUTHCENTRAL AND SOUTHEAST MONTANA

CITY           SKY/WX    TMP DP  RH WIND       PRES   REMARKS
BAKER          MOCLDY    62  51  67 E8        29.94F
BILLINGS       MOCLDY    75  46  35 W13       29.87F
LIVINGSTON     MOCLDY    69  48  47 W10       29.97R
MILES CITY     MOCLDY    71  53  52 E6        29.88F
EKALAKA          N/A     65  53  65 SE10      29.93F
FORSYTH          N/A     72  55  56 E12       29.84S
LAUREL           N/A     74  45  35 SW12      29.88S
$$

REGIONAL REPORTS...DAKOTAS

CITY           SKY/WX    TMP DP  RH WIND       PRES   REMARKS
WILLISTON      CLEAR     61  50  67 CALM      29.96F
MINOT          CLEAR     52  48  86 NW5       29.98R
DICKINSON      PTCLDY    54  48  80 E9        29.96F
CROSBY         FAIR      48  48 100 NE3       29.99S
BISMARCK       CLEAR     53  49  86 CALM      29.98S
GRAND FORKS    CLEAR     48  46  93 NW5       29.95R
FARGO          CLEAR     53  48  83 N3        29.95S
BUFFALO SD       N/A     65  52  62 E9        29.88F
RAPID CITY     CLOUDY    66  58  75 E3        29.93F
$$

REGIONAL REPORTS...WYOMING/IDAHO/WASHINGTON

CITY           SKY/WX    TMP DP  RH WIND       PRES   REMARKS
GILLETTE       CLOUDY    63  50  62 SW3       29.95F
SHERIDAN       CLOUDY    72  47  40 SE10      29.90R
BUFFALO WY     MOCLDY    66  48  52 S3        29.99S
CODY           CLOUDY    63  50  63 W3        29.98R
YELLOWSTONE LA   N/A     49  47  93 CALM      30.24S
IDAHO FALLS    CLOUDY    61  56  83 N3        30.10R
SALMON         CLOUDY    64  48  55 CALM      29.96R
BOISE          LGT RAIN  69  54  58 N22G31    29.98S
SPOKANE        MOCLDY    73  46  38 S7        29.87F
$$

REGIONAL REPORTS...ALBERTA

CITY           SKY/WX    TMP DP  RH WIND       PRES   REMARKS
EDMONTON       LGT RAIN  66  59  77 E7        29.73S
CALGARY        MOCLDY    73  45  35 W17G28    29.82F
LETHBRIDGE     PTCLDY    73  52  46 W20G29    29.77R
MEDICINE HAT   MOCLDY    77  46  33 SE21G29   29.70F
WATERTON GATE    N/A     73  39  29 SW14G23     N/A
CARDSTON         N/A     72  43  35 W6          N/A
MILK RIVER       N/A     72  45  37 SE5         N/A
$$

REGIONAL REPORTS...SASKATCHEWAN

CITY           SKY/WX    TMP DP  RH WIND       PRES   REMARKS
SWIFT CURRENT  CLEAR     61  52  72 SE12G17   29.90S
REGINA         PTCLDY    59  50  72 E12       29.98F
SASKATOON      PTCLDY    63  52  67 SE9       29.96F
CYPRESS HILLS    N/A     61  45  55 SE12G17     N/A
VAL MARIE        N/A     63  46  55 SE7         N/A
ROCKGLEN         N/A     59  48  67 SE10        N/A
$$



USA.gov is the U.S. government's official web portal to all federal, state and local government web resources and services.